Time,TemperatureF,DewpointF,PressureIn,WindDirection,WindDirectionDegrees,WindSpeedMPH,WindSpeedGustMPH,Humidity,HourlyPrecipIn,Conditions,Clouds,dailyrainin,SoftwareType,DateUTC
2013-05-27 01:20:00,40.9,37.3,30.27,SSE,168,0.0,0.0,87,0.00,,---,0.00,VWS V14.01,2013-05-27 05:20:00,
2013-05-27 01:21:00,40.9,37.3,30.27,SSE,168,0.0,0.0,87,0.00,,---,0.00,VWS V14.01,2013-05-27 05:21:00,
2013-05-27 01:26:00,40.8,37.2,30.27,SSE,168,0.0,0.0,87,0.00,,---,0.00,VWS V14.01,2013-05-27 05:26:00,
2013-05-27 01:31:00,40.6,37.3,30.27,SSE,168,0.0,0.0,88,0.00,,---,0.00,VWS V14.01,2013-05-27 05:31:00,
2013-05-27 01:36:00,40.5,37.2,30.27,SSE,168,0.0,0.0,88,0.00,,---,0.00,VWS V14.01,2013-05-27 05:36:00,
2013-05-27 01:41:00,40.4,37.1,30.27,SSE,168,0.0,0.0,88,0.00,,---,0.00,VWS V14.01,2013-05-27 05:41:00,
2013-05-27 01:46:00,40.2,36.9,30.27,SSE,168,0.0,0.0,88,0.00,,---,0.00,VWS V14.01,2013-05-27 05:46:00,
2013-05-27 01:51:00,40.1,36.8,30.27,SSE,168,0.0,0.0,88,0.00,,---,0.00,VWS V14.01,2013-05-27 05:51:00,
2013-05-27 01:56:00,40.0,36.7,30.27,SSE,168,0.0,0.0,88,0.00,,---,0.00,VWS V14.01,2013-05-27 05:56:00,
2013-05-27 02:01:00,39.9,36.6,30.27,SSE,168,0.0,0.0,88,0.00,,---,0.00,VWS V14.01,2013-05-27 06:01:00,
2013-05-27 02:06:00,39.8,36.5,30.27,SSE,168,0.0,0.0,88,0.00,,---,0.00,VWS V14.01,2013-05-27 06:06:00,
2013-05-27 02:11:00,39.6,36.3,30.27,SSE,168,0.0,0.0,88,0.00,,---,0.00,VWS V14.01,2013-05-27 06:11:00,
2013-05-27 02:16:00,39.5,36.2,30.27,SSE,168,0.0,0.0,88,0.00,,---,0.00,VWS V14.01,2013-05-27 06:16:00,
2013-05-27 02:21:00,39.5,36.2,30.27,SSE,168,0.0,0.0,88,0.00,,---,0.00,VWS V14.01,2013-05-27 06:21:00,
2013-05-27 02:26:00,39.3,36.0,30.27,SSE,168,0.0,0.0,88,0.00,,---,0.00,VWS V14.01,2013-05-27 06:26:00,
2013-05-27 02:31:00,39.2,36.2,30.27,SSE,168,0.0,0.0,89,0.00,,---,0.00,VWS V14.01,2013-05-27 06:31:00,
2013-05-27 02:36:00,39.1,36.1,30.27,SSE,168,0.0,0.0,89,0.00,,---,0.00,VWS V14.01,2013-05-27 06:36:00,
2013-05-27 02:41:00,39.0,36.0,30.27,SSE,168,0.0,0.0,89,0.00,,---,0.00,VWS V14.01,2013-05-27 06:41:00,
2013-05-27 02:46:00,38.8,35.8,30.26,SSE,168,0.0,0.0,89,0.00,,---,0.00,VWS V14.01,2013-05-27 06:46:00,
2013-05-27 02:51:00,38.7,35.7,30.26,SSE,168,0.0,0.0,89,0.00,,---,0.00,VWS V14.01,2013-05-27 06:51:00,
2013-05-27 02:56:00,38.6,35.6,30.27,SSE,168,0.0,0.0,89,0.00,,---,0.00,VWS V14.01,2013-05-27 06:56:00,
2013-05-27 03:01:00,38.4,35.5,30.27,SSE,168,0.0,0.0,89,0.00,,---,0.00,VWS V14.01,2013-05-27 07:01:00,
2013-05-27 03:06:00,38.3,35.3,30.26,SSE,168,0.0,0.0,89,0.00,,---,0.00,VWS V14.01,2013-05-27 07:06:00,
2013-05-27 03:11:00,38.2,35.2,30.27,SSE,168,0.0,0.0,89,0.00,,---,0.00,VWS V14.01,2013-05-27 07:11:00,
2013-05-27 03:16:00,38.0,35.0,30.26,SSE,168,0.0,0.0,89,0.00,,---,0.00,VWS V14.01,2013-05-27 07:16:00,
2013-05-27 03:21:00,38.0,35.0,30.26,SSE,168,0.0,0.0,89,0.00,,---,0.00,VWS V14.01,2013-05-27 07:21:00,
2013-05-27 03:26:00,37.9,35.0,30.26,SSE,168,0.0,0.0,89,0.00,,---,0.00,VWS V14.01,2013-05-27 07:26:00,
2013-05-27 03:31:00,37.7,34.8,30.26,SSE,168,0.0,0.0,89,0.00,,---,0.00,VWS V14.01,2013-05-27 07:31:00,
2013-05-27 03:36:00,37.6,34.7,30.26,SSE,168,0.0,0.0,89,0.00,,---,0.00,VWS V14.01,2013-05-27 07:36:00,
2013-05-27 03:41:00,37.5,34.6,30.26,SSE,168,0.0,0.0,89,0.00,,---,0.00,VWS V14.01,2013-05-27 07:41:00,
2013-05-27 03:46:00,37.4,34.5,30.26,SSE,168,0.0,0.0,89,0.00,,---,0.00,VWS V14.01,2013-05-27 07:46:00,
2013-05-27 03:51:00,37.2,34.3,30.26,SSE,168,0.0,0.0,89,0.00,,---,0.00,VWS V14.01,2013-05-27 07:51:00,
2013-05-27 03:56:00,37.1,34.2,30.26,SSE,168,0.0,0.0,89,0.00,,---,0.00,VWS V14.01,2013-05-27 07:56:00,
2013-05-27 04:01:00,37.0,34.1,30.26,SSE,168,0.0,0.0,89,0.00,,---,0.00,VWS V14.01,2013-05-27 08:01:00,
2013-05-27 04:06:00,36.9,34.0,30.26,SSE,168,0.0,0.0,89,0.00,,---,0.00,VWS V14.01,2013-05-27 08:06:00,
2013-05-27 04:11:00,36.8,33.9,30.26,SSE,168,0.0,0.0,89,0.00,,---,0.00,VWS V14.01,2013-05-27 08:11:00,
2013-05-27 04:16:00,36.6,33.7,30.27,SSE,168,0.0,0.0,89,0.00,,---,0.00,VWS V14.01,2013-05-27 08:16:00,
2013-05-27 04:21:00,36.6,33.7,30.27,SSE,168,0.0,0.0,89,0.00,,---,0.00,VWS V14.01,2013-05-27 08:21:00,
2013-05-27 04:26:00,36.5,33.6,30.27,SSE,168,0.0,0.0,89,0.00,,---,0.00,VWS V14.01,2013-05-27 08:26:00,
2013-05-27 04:31:00,36.4,33.5,30.26,SSE,168,0.0,0.0,89,0.00,,---,0.00,VWS V14.01,2013-05-27 08:31:00,
2013-05-27 04:36:00,36.3,33.4,30.26,SSE,168,0.0,0.0,89,0.00,,---,0.00,VWS V14.01,2013-05-27 08:36:00,
2013-05-27 04:41:00,36.2,33.3,30.26,SSE,168,0.0,0.0,89,0.00,,---,0.00,VWS V14.01,2013-05-27 08:41:00,
2013-05-27 04:46:00,36.1,33.2,30.25,SSE,168,0.0,0.0,89,0.00,,---,0.00,VWS V14.01,2013-05-27 08:46:00,
2013-05-27 04:51:00,36.1,33.2,30.25,SSE,168,0.0,0.0,89,0.00,,---,0.00,VWS V14.01,2013-05-27 08:51:00,
2013-05-27 04:56:00,36.0,33.1,30.25,SSE,168,0.0,0.0,89,0.00,,---,0.00,VWS V14.01,2013-05-27 08:56:00,
2013-05-27 05:01:00,35.9,33.0,30.26,SSE,168,0.0,0.0,89,0.00,,---,0.00,VWS V14.01,2013-05-27 09:01:00,
2013-05-27 05:06:00,35.9,33.3,30.25,SSE,168,0.0,0.0,90,0.00,,---,0.00,VWS V14.01,2013-05-27 09:06:00,
2013-05-27 05:11:00,35.8,33.2,30.25,SSE,168,0.0,0.0,90,0.00,,---,0.00,VWS V14.01,2013-05-27 09:11:00,
2013-05-27 05:16:00,35.7,33.1,30.25,SSE,168,0.0,0.0,90,0.00,,---,0.00,VWS V14.01,2013-05-27 09:16:00,
2013-05-27 05:21:00,35.6,33.0,30.25,South,169,0.0,0.0,90,0.00,,---,0.00,VWS V14.01,2013-05-27 09:21:00,
2013-05-27 05:26:00,35.6,33.0,30.25,South,169,0.0,0.0,90,0.00,,---,0.00,VWS V14.01,2013-05-27 09:26:00,
2013-05-27 05:31:00,35.5,32.9,30.26,South,169,0.0,0.0,90,0.00,,---,0.00,VWS V14.01,2013-05-27 09:31:00,
2013-05-27 05:36:00,35.4,32.8,30.26,South,169,0.0,0.0,90,0.00,,---,0.00,VWS V14.01,2013-05-27 09:36:00,
2013-05-27 05:41:00,35.4,32.8,30.26,South,169,0.0,0.0,90,0.00,,---,0.00,VWS V14.01,2013-05-27 09:41:00,
2013-05-27 05:46:00,35.3,32.7,30.26,South,169,0.0,0.0,90,0.00,,---,0.00,VWS V14.01,2013-05-27 09:46:00,
2013-05-27 05:51:00,35.2,32.6,30.26,South,169,0.0,0.0,90,0.00,,---,0.00,VWS V14.01,2013-05-27 09:51:00,
2013-05-27 05:56:00,35.2,32.6,30.25,South,169,0.0,0.0,90,0.00,,---,0.00,VWS V14.01,2013-05-27 09:56:00,
2013-05-27 06:01:00,35.1,32.5,30.26,South,169,0.0,0.0,90,0.00,,---,0.00,VWS V14.01,2013-05-27 10:01:00,
2013-05-27 06:06:00,35.1,32.5,30.26,South,169,0.0,0.0,90,0.00,,---,0.00,VWS V14.01,2013-05-27 10:06:00,
2013-05-27 06:11:00,35.1,32.7,30.26,South,169,0.0,0.0,91,0.00,,---,0.00,VWS V14.01,2013-05-27 10:11:00,
2013-05-27 06:16:00,35.1,32.7,30.26,South,169,0.0,0.0,91,0.00,,---,0.00,VWS V14.01,2013-05-27 10:16:00,
2013-05-27 06:21:00,35.1,32.7,30.26,South,169,0.0,0.0,91,0.00,,---,0.00,VWS V14.01,2013-05-27 10:21:00,
2013-05-27 06:26:00,35.1,32.7,30.26,South,169,0.0,0.0,91,0.00,,---,0.00,VWS V14.01,2013-05-27 10:26:00,
2013-05-27 06:31:00,35.1,32.7,30.26,South,169,0.0,0.0,91,0.00,,---,0.00,VWS V14.01,2013-05-27 10:31:00,
2013-05-27 06:36:00,35.1,32.7,30.27,South,169,0.0,0.0,91,0.00,,---,0.00,VWS V14.01,2013-05-27 10:36:00,
2013-05-27 06:41:00,35.2,32.8,30.26,South,169,0.0,0.0,91,0.00,,---,0.00,VWS V14.01,2013-05-27 10:41:00,
2013-05-27 06:46:00,35.2,32.8,30.27,South,169,0.0,0.0,91,0.00,,---,0.00,VWS V14.01,2013-05-27 10:46:00,
2013-05-27 06:51:00,35.3,32.9,30.27,WNW,302,0.0,0.0,91,0.00,,---,0.00,VWS V14.01,2013-05-27 10:51:00,
2013-05-27 06:56:00,35.5,33.4,30.27,WNW,302,0.0,0.0,92,0.00,,---,0.00,VWS V14.01,2013-05-27 10:56:00,
2013-05-27 07:01:00,35.7,33.6,30.27,WNW,302,0.0,0.0,92,0.00,,---,0.00,VWS V14.01,2013-05-27 11:01:00,
2013-05-27 07:06:00,36.0,33.9,30.27,WNW,302,0.0,0.0,92,0.00,,---,0.00,VWS V14.01,2013-05-27 11:06:00,
2013-05-27 07:11:00,36.3,34.5,30.26,WNW,302,0.0,0.0,93,0.00,,---,0.00,VWS V14.01,2013-05-27 11:11:00,
2013-05-27 07:16:00,36.6,34.8,30.26,WNW,302,0.0,0.0,93,0.00,,---,0.00,VWS V14.01,2013-05-27 11:16:00,
2013-05-27 07:21:00,37.0,35.2,30.27,WNW,302,0.0,0.0,93,0.00,,---,0.00,VWS V14.01,2013-05-27 11:21:00,
2013-05-27 07:26:00,37.4,35.6,30.27,WNW,302,0.0,0.0,93,0.00,,---,0.00,VWS V14.01,2013-05-27 11:26:00,
2013-05-27 07:31:00,37.8,36.2,30.26,WNW,302,0.0,0.0,94,0.00,,---,0.00,VWS V14.01,2013-05-27 11:31:00,
2013-05-27 07:36:00,38.3,36.7,30.27,WNW,302,0.0,0.0,94,0.00,,---,0.00,VWS V14.01,2013-05-27 11:36:00,
2013-05-27 07:41:00,38.8,37.2,30.27,WNW,302,0.0,0.0,94,0.00,,---,0.00,VWS V14.01,2013-05-27 11:41:00,
2013-05-27 07:46:00,39.4,37.8,30.27,WNW,302,0.0,0.0,94,0.00,,---,0.00,VWS V14.01,2013-05-27 11:46:00,
2013-05-27 07:51:00,40.0,38.4,30.27,WNW,302,0.0,0.0,94,0.00,,---,0.00,VWS V14.01,2013-05-27 11:51:00,
2013-05-27 07:56:00,40.6,39.3,30.27,WNW,302,0.0,1.0,95,0.00,,---,0.00,VWS V14.01,2013-05-27 11:56:00,
2013-05-27 08:01:00,41.4,40.1,30.27,NW,324,0.0,1.0,95,0.00,,---,0.00,VWS V14.01,2013-05-27 12:01:00,
2013-05-27 08:06:00,42.1,40.8,30.27,NW,324,0.0,0.0,95,0.00,,---,0.00,VWS V14.01,2013-05-27 12:06:00,
2013-05-27 08:11:00,42.8,41.5,30.27,NW,324,0.0,0.0,95,0.00,,---,0.00,VWS V14.01,2013-05-27 12:11:00,
2013-05-27 08:16:00,43.4,42.1,30.27,NW,324,0.0,0.0,95,0.00,,---,0.00,VWS V14.01,2013-05-27 12:16:00,
2013-05-27 08:21:00,44.0,42.9,30.27,NW,324,0.0,0.0,96,0.00,,---,0.00,VWS V14.01,2013-05-27 12:21:00,
2013-05-27 08:26:00,44.7,43.6,30.27,NW,324,0.0,0.0,96,0.00,,---,0.00,VWS V14.01,2013-05-27 12:26:00,
2013-05-27 08:31:00,45.3,44.2,30.27,NW,324,0.0,1.0,96,0.00,,---,0.00,VWS V14.01,2013-05-27 12:31:00,
2013-05-27 08:36:00,46.1,45.0,30.27,NW,324,0.0,0.0,96,0.00,,---,0.00,VWS V14.01,2013-05-27 12:36:00,
2013-05-27 08:41:00,46.8,45.7,30.27,ESE,107,1.0,1.0,96,0.00,,---,0.00,VWS V14.01,2013-05-27 12:41:00,
2013-05-27 08:46:00,47.4,46.3,30.27,ENE,71,1.0,2.0,96,0.00,,---,0.00,VWS V14.01,2013-05-27 12:46:00,
2013-05-27 08:51:00,47.9,46.8,30.27,ESE,102,2.0,3.0,96,0.00,,---,0.00,VWS V14.01,2013-05-27 12:51:00,
2013-05-27 08:56:00,48.5,47.4,30.27,East,92,1.0,2.0,96,0.00,,---,0.00,VWS V14.01,2013-05-27 12:56:00,
2013-05-27 09:01:00,49.0,47.6,30.27,East,92,1.0,2.0,95,0.00,,---,0.00,VWS V14.01,2013-05-27 13:01:00,
2013-05-27 09:06:00,49.5,47.8,30.27,East,92,0.0,2.0,94,0.00,,---,0.00,VWS V14.01,2013-05-27 13:06:00,
2013-05-27 09:11:00,50.1,48.4,30.27,East,93,0.0,1.0,94,0.00,,---,0.00,VWS V14.01,2013-05-27 13:11:00,
2013-05-27 09:16:00,50.7,48.8,30.27,ENE,65,0.0,4.0,93,0.00,,---,0.00,VWS V14.01,2013-05-27 13:16:00,
2013-05-27 09:21:00,51.4,48.9,30.27,ENE,71,0.0,1.0,91,0.00,,---,0.00,VWS V14.01,2013-05-27 13:21:00,
2013-05-27 09:26:00,51.9,49.1,30.27,North,10,0.0,2.0,90,0.00,,---,0.00,VWS V14.01,2013-05-27 13:26:00,
2013-05-27 09:31:00,52.5,49.0,30.26,NE,44,0.0,1.0,88,0.00,,---,0.00,VWS V14.01,2013-05-27 13:31:00,
2013-05-27 09:36:00,53.0,48.9,30.26,NE,45,1.0,2.0,86,0.00,,---,0.00,VWS V14.01,2013-05-27 13:36:00,
2013-05-27 09:41:00,53.6,48.9,30.26,ENE,67,0.0,1.0,84,0.00,,---,0.00,VWS V14.01,2013-05-27 13:41:00,
2013-05-27 09:46:00,54.2,49.2,30.26,East,94,0.0,2.0,83,0.00,,---,0.00,VWS V14.01,2013-05-27 13:46:00,
2013-05-27 09:51:00,54.6,48.9,30.26,ENE,61,0.0,2.0,81,0.00,,---,0.00,VWS V14.01,2013-05-27 13:51:00,
2013-05-27 09:56:00,55.0,48.6,30.26,SE,145,1.0,2.0,79,0.00,,---,0.00,VWS V14.01,2013-05-27 13:56:00,
2013-05-27 10:01:00,55.4,48.3,30.26,WSW,238,0.0,2.0,77,0.00,,---,0.00,VWS V14.01,2013-05-27 14:01:00,
2013-05-27 10:06:00,55.7,47.5,30.26,WSW,238,0.0,1.0,74,0.00,,---,0.00,VWS V14.01,2013-05-27 14:06:00,
2013-05-27 10:11:00,55.9,47.7,30.26,WSW,238,0.0,1.0,74,0.00,,---,0.00,VWS V14.01,2013-05-27 14:11:00,
2013-05-27 10:16:00,56.2,47.7,30.26,SW,225,0.0,0.0,73,0.00,,---,0.00,VWS V14.01,2013-05-27 14:16:00,
2013-05-27 10:21:00,56.3,47.0,30.26,SW,225,0.0,0.0,71,0.00,,---,0.00,VWS V14.01,2013-05-27 14:21:00,
2013-05-27 10:26:00,56.5,47.2,30.26,SW,225,0.0,0.0,71,0.00,,---,0.00,VWS V14.01,2013-05-27 14:26:00,
2013-05-27 10:31:00,56.8,47.5,30.26,SW,226,0.0,0.0,71,0.00,,---,0.00,VWS V14.01,2013-05-27 14:31:00,
2013-05-27 10:36:00,56.9,48.0,30.26,SW,226,0.0,0.0,72,0.00,,---,0.00,VWS V14.01,2013-05-27 14:36:00,
2013-05-27 10:41:00,57.2,47.9,30.26,SW,225,0.0,1.0,71,0.00,,---,0.00,VWS V14.01,2013-05-27 14:41:00,
2013-05-27 10:46:00,57.4,48.1,30.26,SW,225,0.0,0.0,71,0.00,,---,0.00,VWS V14.01,2013-05-27 14:46:00,
2013-05-27 10:51:00,57.6,47.9,30.26,SW,225,0.0,0.0,70,0.00,,---,0.00,VWS V14.01,2013-05-27 14:51:00,
2013-05-27 10:56:00,57.7,48.0,30.26,SW,225,0.0,0.0,70,0.00,,---,0.00,VWS V14.01,2013-05-27 14:56:00,
2013-05-27 11:01:00,57.8,47.7,30.26,NNW,327,0.0,0.0,69,0.00,,---,0.00,VWS V14.01,2013-05-27 15:01:00,
2013-05-27 11:06:00,58.0,48.3,30.26,SE,124,1.0,3.0,70,0.00,,---,0.00,VWS V14.01,2013-05-27 15:06:00,
2013-05-27 11:11:00,58.1,48.0,30.26,East,90,0.0,0.0,69,0.00,,---,0.00,VWS V14.01,2013-05-27 15:11:00,
2013-05-27 11:16:00,58.3,48.6,30.26,East,89,0.0,0.0,70,0.00,,---,0.00,VWS V14.01,2013-05-27 15:16:00,
2013-05-27 11:21:00,58.4,48.7,30.26,East,89,0.0,0.0,70,0.00,,---,0.00,VWS V14.01,2013-05-27 15:21:00,
2013-05-27 11:26:00,58.4,47.9,30.26,East,89,0.0,0.0,68,0.00,,---,0.00,VWS V14.01,2013-05-27 15:26:00,
2013-05-27 11:31:00,58.4,48.3,30.25,East,89,0.0,0.0,69,0.00,,---,0.00,VWS V14.01,2013-05-27 15:31:00,
2013-05-27 11:36:00,58.5,48.4,30.25,East,89,0.0,0.0,69,0.00,,---,0.00,VWS V14.01,2013-05-27 15:36:00,
2013-05-27 11:41:00,58.6,48.5,30.25,East,89,0.0,0.0,69,0.00,,---,0.00,VWS V14.01,2013-05-27 15:41:00,
2013-05-27 11:46:00,58.6,48.9,30.25,East,89,0.0,0.0,70,0.00,,---,0.00,VWS V14.01,2013-05-27 15:46:00,
2013-05-27 11:51:00,58.7,49.0,30.26,East,89,0.0,0.0,70,0.00,,---,0.00,VWS V14.01,2013-05-27 15:51:00,
2013-05-27 11:56:00,58.8,49.0,30.26,East,89,0.0,1.0,70,0.00,,---,0.00,VWS V14.01,2013-05-27 15:56:00,
2013-05-27 12:01:00,58.9,48.4,30.26,East,89,0.0,0.0,68,0.00,,---,0.00,VWS V14.01,2013-05-27 16:01:00,
2013-05-27 12:06:00,59.0,49.2,30.26,East,89,0.0,0.0,70,0.00,,---,0.00,VWS V14.01,2013-05-27 16:06:00,
2013-05-27 12:11:00,59.1,49.0,30.25,East,89,0.0,0.0,69,0.00,,---,0.00,VWS V14.01,2013-05-27 16:11:00,
2013-05-27 12:16:00,59.2,49.4,30.25,East,89,0.0,0.0,70,0.00,,---,0.00,VWS V14.01,2013-05-27 16:16:00,
2013-05-27 12:21:00,59.3,49.1,30.25,East,89,0.0,0.0,69,0.00,,---,0.00,VWS V14.01,2013-05-27 16:21:00,
2013-05-27 12:26:00,59.3,48.8,30.25,East,89,0.0,0.0,68,0.00,,---,0.00,VWS V14.01,2013-05-27 16:26:00,
2013-05-27 12:31:00,59.5,49.3,30.25,East,89,0.0,0.0,69,0.00,,---,0.00,VWS V14.01,2013-05-27 16:31:00,
2013-05-27 12:36:00,59.6,49.0,30.25,East,89,0.0,0.0,68,0.00,,---,0.00,VWS V14.01,2013-05-27 16:36:00,
2013-05-27 12:41:00,59.7,49.5,30.25,East,89,0.0,0.0,69,0.00,,---,0.00,VWS V14.01,2013-05-27 16:41:00,
2013-05-27 12:46:00,59.8,49.2,30.25,East,89,0.0,0.0,68,0.00,,---,0.00,VWS V14.01,2013-05-27 16:46:00,
2013-05-27 12:51:00,59.9,49.3,30.25,ESE,123,0.0,1.0,68,0.00,,---,0.00,VWS V14.01,2013-05-27 16:51:00,
2013-05-27 12:56:00,60.0,49.0,30.25,ESE,105,0.0,0.0,67,0.00,,---,0.00,VWS V14.01,2013-05-27 16:56:00,
2013-05-27 13:01:00,60.1,49.5,30.25,ESE,105,0.0,1.0,68,0.00,,---,0.00,VWS V14.01,2013-05-27 17:01:00,
2013-05-27 13:06:00,60.2,49.2,30.25,ESE,105,0.0,1.0,67,0.00,,---,0.00,VWS V14.01,2013-05-27 17:06:00,
2013-05-27 13:11:00,60.2,48.8,30.25,ESE,105,0.0,0.0,66,0.00,,---,0.00,VWS V14.01,2013-05-27 17:11:00,
2013-05-27 13:16:00,60.4,50.6,30.26,ESE,105,0.0,0.0,70,0.00,,---,0.00,VWS V14.01,2013-05-27 17:16:00,
2013-05-27 13:21:00,60.4,50.2,30.25,ESE,105,0.0,0.0,69,0.00,,---,0.00,VWS V14.01,2013-05-27 17:21:00,
2013-05-27 13:26:00,60.5,49.9,30.25,ESE,115,0.0,1.0,68,0.00,,---,0.00,VWS V14.01,2013-05-27 17:26:00,
2013-05-27 13:31:00,60.5,50.3,30.25,SE,142,0.0,2.0,69,0.00,,---,0.00,VWS V14.01,2013-05-27 17:31:00,
2013-05-27 13:36:00,60.5,50.7,30.25,SE,145,0.0,1.0,70,0.00,,---,0.00,VWS V14.01,2013-05-27 17:36:00,
2013-05-27 13:41:00,60.5,50.7,30.25,WSW,237,0.0,3.0,70,0.00,,---,0.00,VWS V14.01,2013-05-27 17:41:00,
2013-05-27 13:46:00,60.5,51.4,30.25,WSW,237,0.0,0.0,72,0.00,,---,0.00,VWS V14.01,2013-05-27 17:46:00,
2013-05-27 13:51:00,60.5,52.2,30.25,SW,227,0.0,2.0,74,0.00,,---,0.00,VWS V14.01,2013-05-27 17:51:00,
2013-05-27 13:56:00,60.5,52.9,30.25,SW,227,0.0,0.0,76,0.00,,---,0.00,VWS V14.01,2013-05-27 17:56:00,
2013-05-27 14:01:00,60.4,52.8,30.25,SW,223,0.0,0.0,76,0.01,,---,0.01,VWS V14.01,2013-05-27 18:01:00,
2013-05-27 14:06:00,60.4,53.5,30.25,SE,146,1.0,3.0,78,0.01,,---,0.01,VWS V14.01,2013-05-27 18:06:00,
2013-05-27 14:11:00,60.3,53.8,30.24,ESE,119,0.0,2.0,79,0.01,,---,0.01,VWS V14.01,2013-05-27 18:11:00,
2013-05-27 14:16:00,60.3,54.1,30.23,ESE,110,0.0,1.0,80,0.01,,---,0.01,VWS V14.01,2013-05-27 18:16:00,
2013-05-27 14:21:00,60.3,54.5,30.23,ESE,119,0.0,0.0,81,0.01,,---,0.01,VWS V14.01,2013-05-27 18:21:00,
2013-05-27 14:26:00,60.2,54.4,30.23,South,183,2.0,3.0,81,0.01,,---,0.01,VWS V14.01,2013-05-27 18:26:00,
2013-05-27 14:31:00,60.0,53.8,30.22,SE,142,0.0,2.0,80,0.01,,---,0.01,VWS V14.01,2013-05-27 18:31:00,
2013-05-27 14:36:00,59.7,53.2,30.22,South,188,0.0,4.0,79,0.01,,---,0.01,VWS V14.01,2013-05-27 18:36:00,
2013-05-27 14:41:00,59.5,53.0,30.21,South,170,0.0,3.0,79,0.01,,---,0.01,VWS V14.01,2013-05-27 18:41:00,
2013-05-27 14:46:00,59.4,52.9,30.21,SE,134,0.0,2.0,79,0.01,,---,0.01,VWS V14.01,2013-05-27 18:46:00,
2013-05-27 14:51:00,59.5,53.7,30.21,South,182,0.0,1.0,81,0.01,,---,0.01,VWS V14.01,2013-05-27 18:51:00,
2013-05-27 14:56:00,59.6,53.8,30.21,South,174,0.0,3.0,81,0.01,,---,0.01,VWS V14.01,2013-05-27 18:56:00,
2013-05-27 15:01:00,59.6,53.4,30.21,South,174,0.0,2.0,80,0.01,,---,0.01,VWS V14.01,2013-05-27 19:01:00,
2013-05-27 15:06:00,59.6,53.1,30.21,ESE,113,0.0,1.0,79,0.00,,---,0.01,VWS V14.01,2013-05-27 19:06:00,
2013-05-27 15:11:00,59.8,53.3,30.21,SSW,213,0.0,4.0,79,0.00,,---,0.01,VWS V14.01,2013-05-27 19:11:00,
2013-05-27 15:16:00,60.0,53.5,30.21,SSW,212,0.0,2.0,79,0.00,,---,0.01,VWS V14.01,2013-05-27 19:16:00,
2013-05-27 15:21:00,60.2,53.7,30.21,East,95,0.0,2.0,79,0.00,,---,0.01,VWS V14.01,2013-05-27 19:21:00,
2013-05-27 15:26:00,60.4,53.5,30.21,ESE,120,1.0,1.0,78,0.00,,---,0.01,VWS V14.01,2013-05-27 19:26:00,
2013-05-27 15:31:00,60.7,53.5,30.21,SSE,156,0.0,1.0,77,0.00,,---,0.01,VWS V14.01,2013-05-27 19:31:00,
2013-05-27 15:36:00,60.8,52.8,30.21,South,169,0.0,2.0,75,0.00,,---,0.01,VWS V14.01,2013-05-27 19:36:00,
2013-05-27 15:41:00,60.8,51.7,30.21,South,170,0.0,2.0,72,0.00,,---,0.01,VWS V14.01,2013-05-27 19:41:00,
2013-05-27 15:46:00,60.9,52.2,30.21,South,173,0.0,2.0,73,0.00,,---,0.01,VWS V14.01,2013-05-27 19:46:00,
2013-05-27 15:51:00,61.0,52.3,30.20,East,90,2.0,2.0,73,0.00,,---,0.01,VWS V14.01,2013-05-27 19:51:00,
2013-05-27 15:56:00,60.9,52.2,30.20,NE,47,0.0,0.0,73,0.00,,---,0.01,VWS V14.01,2013-05-27 19:56:00,
2013-05-27 16:01:00,60.9,52.2,30.19,NE,51,0.0,2.0,73,0.00,,---,0.01,VWS V14.01,2013-05-27 20:01:00,
2013-05-27 16:06:00,60.9,52.2,30.19,NE,53,0.0,0.0,73,0.00,,---,0.01,VWS V14.01,2013-05-27 20:06:00,
2013-05-27 16:11:00,60.7,51.6,30.19,NE,55,0.0,0.0,72,0.00,,---,0.01,VWS V14.01,2013-05-27 20:11:00,
2013-05-27 16:16:00,60.7,52.4,30.19,NE,52,0.0,0.0,74,0.00,,---,0.01,VWS V14.01,2013-05-27 20:16:00,
2013-05-27 16:21:00,60.5,52.2,30.19,NE,54,0.0,0.0,74,0.00,,---,0.01,VWS V14.01,2013-05-27 20:21:00,
2013-05-27 16:26:00,60.5,52.2,30.19,NE,54,0.0,1.0,74,0.00,,---,0.01,VWS V14.01,2013-05-27 20:26:00,
2013-05-27 16:31:00,60.5,52.2,30.19,ESE,108,0.0,2.0,74,0.00,,---,0.01,VWS V14.01,2013-05-27 20:31:00,
2013-05-27 16:36:00,60.5,51.8,30.19,NE,44,0.0,3.0,73,0.00,,---,0.01,VWS V14.01,2013-05-27 20:36:00,
2013-05-27 16:41:00,60.5,51.8,30.18,East,98,0.0,2.0,73,0.00,,---,0.01,VWS V14.01,2013-05-27 20:41:00,
2013-05-27 16:46:00,60.4,51.3,30.18,ENE,76,1.0,2.0,72,0.00,,---,0.01,VWS V14.01,2013-05-27 20:46:00,
2013-05-27 16:51:00,60.4,51.3,30.18,ENE,63,0.0,2.0,72,0.00,,---,0.01,VWS V14.01,2013-05-27 20:51:00,
2013-05-27 16:56:00,60.6,51.9,30.18,ENE,65,0.0,1.0,73,0.00,,---,0.01,VWS V14.01,2013-05-27 20:56:00,
2013-05-27 17:01:00,60.9,52.6,30.18,ENE,62,0.0,1.0,74,0.00,,---,0.01,VWS V14.01,2013-05-27 21:01:00,
2013-05-27 17:06:00,61.2,52.5,30.17,ENE,74,0.0,4.0,73,0.00,,---,0.01,VWS V14.01,2013-05-27 21:06:00,
2013-05-27 17:11:00,61.4,51.5,30.18,ENE,76,1.0,4.0,70,0.00,,---,0.01,VWS V14.01,2013-05-27 21:11:00,
2013-05-27 17:16:00,61.8,52.3,30.17,ESE,108,0.0,4.0,71,0.00,,---,0.01,VWS V14.01,2013-05-27 21:16:00,
2013-05-27 17:21:00,62.1,52.6,30.17,ESE,108,0.0,3.0,71,0.00,,---,0.01,VWS V14.01,2013-05-27 21:21:00,
2013-05-27 17:26:00,62.4,52.1,30.17,ENE,75,0.0,4.0,69,0.00,,---,0.01,VWS V14.01,2013-05-27 21:26:00,
2013-05-27 17:31:00,62.6,52.3,30.17,ENE,75,1.0,1.0,69,0.00,,---,0.01,VWS V14.01,2013-05-27 21:31:00,
2013-05-27 17:36:00,62.8,52.1,30.17,East,90,0.0,1.0,68,0.00,,---,0.01,VWS V14.01,2013-05-27 21:36:00,
2013-05-27 17:41:00,62.9,51.4,30.17,ENE,64,1.0,2.0,66,0.00,,---,0.01,VWS V14.01,2013-05-27 21:41:00,
2013-05-27 17:46:00,62.7,51.2,30.17,East,82,1.0,2.0,66,0.00,,---,0.01,VWS V14.01,2013-05-27 21:46:00,
2013-05-27 17:51:00,62.6,51.1,30.17,East,82,0.0,1.0,66,0.00,,---,0.01,VWS V14.01,2013-05-27 21:51:00,
2013-05-27 17:56:00,62.3,51.2,30.17,East,82,0.0,0.0,67,0.00,,---,0.01,VWS V14.01,2013-05-27 21:56:00,
2013-05-27 18:01:00,62.2,51.5,30.17,East,82,0.0,0.0,68,0.00,,---,0.01,VWS V14.01,2013-05-27 22:01:00,
2013-05-27 18:06:00,62.0,51.3,30.17,East,82,0.0,0.0,68,0.00,,---,0.01,VWS V14.01,2013-05-27 22:06:00,
2013-05-27 18:11:00,61.9,51.6,30.17,East,82,0.0,0.0,69,0.00,,---,0.01,VWS V14.01,2013-05-27 22:11:00,
2013-05-27 18:16:00,61.6,51.3,30.17,East,91,0.0,3.0,69,0.00,,---,0.01,VWS V14.01,2013-05-27 22:16:00,
2013-05-27 18:21:00,61.4,51.2,30.17,East,98,0.0,1.0,69,0.00,,---,0.01,VWS V14.01,2013-05-27 22:21:00,
2013-05-27 18:26:00,61.3,51.1,30.16,ESE,113,0.0,1.0,69,0.00,,---,0.01,VWS V14.01,2013-05-27 22:26:00,
2013-05-27 18:31:00,61.1,50.9,30.16,NNE,26,0.0,0.0,69,0.00,,---,0.01,VWS V14.01,2013-05-27 22:31:00,
2013-05-27 18:36:00,61.0,50.8,30.16,East,89,0.0,2.0,69,0.00,,---,0.01,VWS V14.01,2013-05-27 22:36:00,
2013-05-27 18:41:00,60.9,50.7,30.15,East,94,1.0,4.0,69,0.00,,---,0.01,VWS V14.01,2013-05-27 22:41:00,
2013-05-27 18:46:00,60.5,49.9,30.15,ENE,74,0.0,3.0,68,0.00,,---,0.01,VWS V14.01,2013-05-27 22:46:00,
2013-05-27 18:51:00,60.4,50.2,30.14,ESE,105,0.0,2.0,69,0.00,,---,0.01,VWS V14.01,2013-05-27 22:51:00,
2013-05-27 18:56:00,60.1,50.3,30.15,ESE,119,0.0,1.0,70,0.00,,---,0.01,VWS V14.01,2013-05-27 22:56:00,
2013-05-27 19:01:00,59.9,50.1,30.15,ESE,119,0.0,0.0,70,0.00,,---,0.01,VWS V14.01,2013-05-27 23:01:00,
2013-05-27 19:06:00,59.8,50.4,30.15,ESE,119,0.0,0.0,71,0.00,,---,0.01,VWS V14.01,2013-05-27 23:06:00,
2013-05-27 19:11:00,59.7,50.7,30.14,ESE,119,0.0,0.0,72,0.00,,---,0.01,VWS V14.01,2013-05-27 23:11:00,
2013-05-27 19:16:00,59.5,50.8,30.14,ESE,102,0.0,2.0,73,0.00,,---,0.01,VWS V14.01,2013-05-27 23:16:00,
2013-05-27 19:21:00,59.4,50.8,30.14,ESE,102,0.0,0.0,73,0.00,,---,0.01,VWS V14.01,2013-05-27 23:21:00,
2013-05-27 19:26:00,59.3,50.7,30.14,NNE,15,0.0,0.0,73,0.00,,---,0.01,VWS V14.01,2013-05-27 23:26:00,
2013-05-27 19:31:00,59.1,50.5,30.15,NNE,15,0.0,0.0,73,0.00,,---,0.01,VWS V14.01,2013-05-27 23:31:00,
2013-05-27 19:36:00,59.1,51.2,30.15,NNE,15,0.0,0.0,75,0.00,,---,0.01,VWS V14.01,2013-05-27 23:36:00,
2013-05-27 19:41:00,59.1,51.2,30.15,NNE,15,0.0,0.0,75,0.00,,---,0.01,VWS V14.01,2013-05-27 23:41:00,
2013-05-27 19:46:00,58.9,51.0,30.15,NNE,15,0.0,0.0,75,0.00,,---,0.01,VWS V14.01,2013-05-27 23:46:00,
2013-05-27 19:51:00,58.8,50.9,30.15,NNE,15,0.0,0.0,75,0.00,,---,0.01,VWS V14.01,2013-05-27 23:51:00,
2013-05-27 19:56:00,58.7,51.2,30.15,NNE,15,0.0,0.0,76,0.00,,---,0.01,VWS V14.01,2013-05-27 23:56:00,
2013-05-27 20:01:00,58.5,51.0,30.14,NNE,15,0.0,0.0,76,0.00,,---,0.01,VWS V14.01,2013-05-28 00:01:00,
2013-05-27 20:06:00,58.4,51.2,30.15,NNE,15,0.0,0.0,77,0.00,,---,0.01,VWS V14.01,2013-05-28 00:06:00,
2013-05-27 20:11:00,58.2,51.0,30.15,NNE,15,0.0,0.0,77,0.00,,---,0.01,VWS V14.01,2013-05-28 00:11:00,
2013-05-27 20:16:00,58.1,51.3,30.15,NNE,15,0.0,0.0,78,0.00,,---,0.01,VWS V14.01,2013-05-28 00:16:00,
2013-05-27 20:21:00,58.0,51.2,30.14,NNE,15,0.0,0.0,78,0.00,,---,0.01,VWS V14.01,2013-05-28 00:21:00,
2013-05-27 20:26:00,57.8,51.0,30.14,NNE,15,0.0,0.0,78,0.00,,---,0.01,VWS V14.01,2013-05-28 00:26:00,
2013-05-27 20:31:00,57.6,51.1,30.14,NNE,15,0.0,0.0,79,0.00,,---,0.01,VWS V14.01,2013-05-28 00:31:00,
2013-05-27 20:36:00,57.4,51.0,30.14,NNE,15,0.0,0.0,79,0.00,,---,0.01,VWS V14.01,2013-05-28 00:36:00,
2013-05-27 20:41:00,57.2,50.8,30.13,NNE,15,0.0,0.0,79,0.00,,---,0.01,VWS V14.01,2013-05-28 00:41:00,
2013-05-27 20:46:00,56.9,50.5,30.13,NNE,15,0.0,0.0,79,0.00,,---,0.01,VWS V14.01,2013-05-28 00:46:00,
2013-05-27 20:51:00,56.7,50.3,30.13,NNE,15,0.0,0.0,79,0.00,,---,0.01,VWS V14.01,2013-05-28 00:51:00,
2013-05-27 20:56:00,56.5,50.4,30.13,NNE,15,0.0,0.0,80,0.00,,---,0.01,VWS V14.01,2013-05-28 00:56:00,
2013-05-27 21:01:00,56.3,50.2,30.13,NNE,15,0.0,0.0,80,0.00,,---,0.01,VWS V14.01,2013-05-28 01:01:00,
2013-05-27 21:06:00,56.2,50.5,30.12,NNE,15,0.0,0.0,81,0.00,,---,0.01,VWS V14.01,2013-05-28 01:06:00,
2013-05-27 21:11:00,56.0,50.3,30.13,NNE,15,0.0,0.0,81,0.00,,---,0.01,VWS V14.01,2013-05-28 01:11:00,
2013-05-27 21:16:00,55.8,50.1,30.13,NNE,15,0.0,0.0,81,0.00,,---,0.01,VWS V14.01,2013-05-28 01:16:00,
2013-05-27 21:21:00,55.7,50.3,30.13,NNE,15,0.0,0.0,82,0.00,,---,0.01,VWS V14.01,2013-05-28 01:21:00,
2013-05-27 21:26:00,55.5,50.1,30.12,NNE,15,0.0,0.0,82,0.00,,---,0.01,VWS V14.01,2013-05-28 01:26:00,
2013-05-27 21:31:00,55.4,50.0,30.13,NNE,15,0.0,0.0,82,0.00,,---,0.01,VWS V14.01,2013-05-28 01:31:00,
2013-05-27 21:36:00,55.3,50.2,30.13,NNE,15,0.0,0.0,83,0.00,,---,0.01,VWS V14.01,2013-05-28 01:36:00,
2013-05-27 21:41:00,55.1,50.0,30.13,NNE,15,0.0,0.0,83,0.00,,---,0.01,VWS V14.01,2013-05-28 01:41:00,
2013-05-27 21:46:00,55.0,49.9,30.12,NNE,15,0.0,0.0,83,0.00,,---,0.01,VWS V14.01,2013-05-28 01:46:00,
2013-05-27 21:51:00,54.9,50.2,30.12,NNE,15,0.0,0.0,84,0.00,,---,0.01,VWS V14.01,2013-05-28 01:51:00,
2013-05-27 21:56:00,54.8,50.1,30.12,NNE,15,0.0,0.0,84,0.00,,---,0.01,VWS V14.01,2013-05-28 01:56:00,
2013-05-27 22:01:00,54.7,50.0,30.12,NNE,15,0.0,0.0,84,0.00,,---,0.01,VWS V14.01,2013-05-28 02:01:00,
2013-05-27 22:06:00,54.6,49.9,30.12,NNE,15,0.0,0.0,84,0.00,,---,0.01,VWS V14.01,2013-05-28 02:06:00,
2013-05-27 22:11:00,54.6,50.2,30.12,NNE,15,0.0,0.0,85,0.00,,---,0.01,VWS V14.01,2013-05-28 02:11:00,
2013-05-27 22:16:00,54.5,50.1,30.12,NNE,15,0.0,0.0,85,0.00,,---,0.01,VWS V14.01,2013-05-28 02:16:00,
2013-05-27 22:21:00,54.4,50.0,30.12,NNE,15,0.0,0.0,85,0.00,,---,0.01,VWS V14.01,2013-05-28 02:21:00,
2013-05-27 22:26:00,54.4,50.3,30.12,NNE,15,0.0,0.0,86,0.00,,---,0.01,VWS V14.01,2013-05-28 02:26:00,
2013-05-27 22:31:00,54.3,50.2,30.12,NNE,15,0.0,0.0,86,0.00,,---,0.01,VWS V14.01,2013-05-28 02:31:00,
2013-05-27 22:36:00,54.2,49.8,30.12,NNE,15,0.0,0.0,85,0.00,,---,0.01,VWS V14.01,2013-05-28 02:36:00,
2013-05-27 22:41:00,54.2,49.8,30.12,NNE,15,0.0,0.0,85,0.00,,---,0.01,VWS V14.01,2013-05-28 02:41:00,
2013-05-27 22:46:00,54.2,50.1,30.12,NNE,15,0.0,0.0,86,0.00,,---,0.01,VWS V14.01,2013-05-28 02:46:00,
2013-05-27 22:51:00,54.1,50.0,30.13,NNE,15,0.0,0.0,86,0.00,,---,0.01,VWS V14.01,2013-05-28 02:51:00,
2013-05-27 22:56:00,54.1,50.0,30.13,NNE,15,0.0,0.0,86,0.00,,---,0.01,VWS V14.01,2013-05-28 02:56:00,
2013-05-27 23:01:00,54.1,50.0,30.12,NNE,15,0.0,0.0,86,0.00,,---,0.01,VWS V14.01,2013-05-28 03:01:00,
2013-05-27 23:06:00,54.0,49.9,30.12,NNE,15,0.0,0.0,86,0.00,,---,0.01,VWS V14.01,2013-05-28 03:06:00,
2013-05-27 23:11:00,54.0,49.9,30.11,NNE,15,0.0,0.0,86,0.00,,---,0.01,VWS V14.01,2013-05-28 03:11:00,
2013-05-27 23:16:00,54.1,50.3,30.10,NNE,15,0.0,0.0,87,0.00,,---,0.01,VWS V14.01,2013-05-28 03:16:00,
2013-05-27 23:21:00,54.1,50.3,30.11,NNE,17,0.0,0.0,87,0.00,,---,0.01,VWS V14.01,2013-05-28 03:21:00,
2013-05-27 23:26:00,54.0,50.2,30.11,NNE,17,0.0,0.0,87,0.00,,---,0.01,VWS V14.01,2013-05-28 03:26:00,
2013-05-27 23:31:00,54.0,50.2,30.11,NNE,17,0.0,0.0,87,0.00,,---,0.01,VWS V14.01,2013-05-28 03:31:00,
2013-05-27 23:36:00,54.0,50.2,30.10,NNE,17,0.0,0.0,87,0.00,,---,0.01,VWS V14.01,2013-05-28 03:36:00,
2013-05-27 23:41:00,54.0,50.2,30.10,NNE,17,0.0,0.0,87,0.00,,---,0.01,VWS V14.01,2013-05-28 03:41:00,
2013-05-27 23:46:00,54.0,50.2,30.10,NNE,17,0.0,0.0,87,0.00,,---,0.01,VWS V14.01,2013-05-28 03:46:00,
2013-05-27 23:51:00,54.0,50.2,30.10,NNE,17,0.0,0.0,87,0.00,,---,0.01,VWS V14.01,2013-05-28 03:51:00,
2013-05-27 23:56:00,54.0,50.2,30.10,NNE,17,0.0,0.0,87,0.00,,---,0.01,VWS V14.01,2013-05-28 03:56:00,